Temp
6 7 7 7 7 7 7 7 7 7 7 7 7 7 7 7 8 8 8 8 8 9 9 9 9 8 8 8 8 7 7 8 8 8 8 8 8 8 8 8 7 7 7 7 7
6 7 7 7 7 7 7 7 7 7 7 7 7 7 7 8 8 8 8 9 9 9 9 9 9 8 8 8 8 7 7 8 8 8 8 8 8 8 8 8 8 8 8 7 7
6 7 7 7 7 7 7 7 7 7 7 7 7 7 8 8 8 8 9 9 9 9 9 9 8 8 8 8 8 8 8 8 8 8 8 8 8 8 8 8 8 8 8 8 8
6 7 7 7 7 7 7 7 7 7 7 7 7 8 8 8 8 9 8 9 9 9 9 9 8 8 8 8 8 8 8 8 8 8 8 8 8 8 9 8 8 8 8 8 8
6 7 7 7 7 7 7 7 7 7 7 7 7 8 8 8 8 8 8 8 9 9 9 8 8 8 8 8 8 8 8 8 8 8 8 8 8 9 9 9 8 8 8 8 8
7 7 7 7 7 7 7 7 7 7 7 7 8 8 8 8 8 8 9 9 9 9 8 8 8 8 8 8 8 8 8 8 8 8 8 8 8 9 9 9 8 8 8 8 8
6 7 7 7 7 7 8 8 8 7 7 8 8 8 8 8 9 8 9 9 9 9 8 8 8 8 8 8 8 8 8 8 8 8 8 8 9 9 9 9 8 8 8 8 7
6 7 7 7 7 8 8 8 8 8 8 8 8 8 9 9 9 9 9 9 9 8 8 8 8 8 8 8 8 8 8 8 8 8 8 8 9 8 9 8 8 8 8 8 8
6 6 7 7 7 8 8 8 8 8 8 8 8 8 9 9 9 9 9 9 8 8 8 8 8 8 8 7 7 8 8 8 8 8 7 7 9 8 8 8 8 8 8 8 8
6 6 6 7 7 7 8 8 8 8 8 8 8 8 9 9 9 9 8 8 8 8 8 8 7 8 8 7 8 8 7 8 7 7 7 7 9 9 8 8 8 8 8 9 9
6 6 6 6 7 7 7 7 7 8 8 8 8 8 8 8 8 8 8 8 8 8 8 7 7 8 8 7 7 7 7 7 7 6 6 7 8 9 9 9 9 9 8 9 9
5 6 6 6 6 7 7 7 7 7 8 8 8 8 8 8 8 8 7 7 7 7 7 7 8 7 8 7 7 7 7 7 7 6 6 6 7 8 9 9 9 8 8 8 8
5 6 6 6 6 6 6 6 6 7 7 9 9 9 8 8 7 7 7 7 7 7 7 7 8 7 7 7 7 6 6 6 6 6 5 5 7 8 9 9 9 8 8 8 8
5 6 6 6 6 6 6 6 6 6 7 8 8 8 8 7 7 7 7 6 6 7 7 7 7 7 7 7 6 6 6 6 5 4 4 4 3 5 8 8 8 8 8 8 7
5 5 5 6 6 6 6 6 6 6 2 8 8 8 7 7 7 7 7 6 6 6 6 7 7 7 6 7 6 5 5 5 4 4 2 3 2 7 7 7 7 7 7 7 6
5 5 5 5 5 5 5 5 5 5 4 8 8 8 7 7 6 6 6 6 6 6 6 7 6 6 6 6 5 5 4 4 4 3 -1 4 3 5 7 7 7 7 6 6 5
4 5 5 5 5 5 5 5 4 4 7 7 7 7 6 6 6 6 6 6 6 5 6 6 7 6 6 6 5 4 3 2 1 -1 0 2 0 5 6 5 6 6 5 5 5
4 4 4 4 4 4 4 4 3 5 7 7 6 6 6 6 6 6 6 6 6 5 5 4 5 6 6 6 5 4 3 3 1 -0 1 1 0 5 5 5 5 5 4 4 4
4 4 4 4 4 4 3 3 4 5 5 5 5 5 5 5 5 5 5 5 5 6 5 4 4 5 5 5 4 3 2 4 3 0 -1 3 4 4 4 4 4 4 4 4 4
3 3 3 3 3 2 2 3 3 4 4 4 4 4 4 4 4 4 4 4 4 5 5 4 3 4 4 4 3 3 3 2 1 0 -1 1 2 3 4 4 4 4 4 4 4
1 2 1 1 1 1 1 1 2 2 2 2 2 2 2 2 2 2 2 3 3 3 4 4 3 3 2 2 3 2 2 1 2 1 0 1 3 4 3 3 3 3 3 2 2
-0 -0 -0 -0 0 0 1 0 0 -0 0 0 0 1 1 1 1 1 1 2 2 2 3 3 2 2 2 2 2 1 2 2 1 0 0 -1 1 2 2 2 2 2 2 2 1
1 1 1 0 -1 -1 -1 -1 -1 -1 -1 -1 -1 -1 -1 -1 -1 -0 0 1 1 1 1 1 1 1 1 1 0 0 1 1 1 1 0 -0 0 1 1 1 2 2 1 1 0
-1 -2 -2 -2 -3 -3 -3 -3 -3 -2 -2 -2 -2 -2 -2 -2 -2 -2 -2 -1 -0 0 0 -0 -0 1 1 1 1 0 1 1 0 -1 -2 -1 -1 1 0 1 1 0 -0 -1 -1
-3 -4 -6 -5 -4 -4 -4 -5 -4 -4 -3 -3 -2 -2 -2 -3 -3 -2 -2 -2 -2 -2 -2 -3 -3 -2 -1 -0 -1 -1 -1 -1 -2 -1 -2 -2 -2 0 -0 -0 -0 -1 -2 -2 -2
-5 -5 -5 -6 -6 -6 -6 -6 -5 -5 -6 -6 -5 -5 -4 -4 -5 -5 -4 -4 -3 -3 -3 -2 -2 -2 -2 -0 -1 -2 -1 -1 -2 -2 -3 -2 -2 2 -0 -2 -2 -2 -3 -3 -3
-6 -7 -7 -7 -7 -7 -8 -8 -8 -8 -7 -7 -7 -7 -6 -6 -6 -5 -5 -5 -5 -4 -3 -3 -2 -3 -3 -2 -3 -3 -2 -1 -0 -0 -2 -3 0 -2 -3 -3 -3 -3 -3 -4 -4
Height
3119 3120 3121 3122 3123 3124 3124 3125 3125 3126 3126 3126 3126 3125 3124 3124 3123 3123 3123 3123 3123 3123 3124 3124 3125 3125 3126 3126 3127 3127 3128 3125 3124 3123 3124 3123 3123 3122 3122 3121 3120 3120 3119 3119 3119
3119 3120 3121 3122 3123 3124 3124 3124 3125 3125 3125 3125 3124 3124 3124 3124 3123 3123 3124 3122 3123 3123 3124 3125 3125 3125 3125 3125 3125 3125 3124 3123 3122 3122 3122 3121 3121 3120 3119 3118 3117 3116 3116 3116 3116
3119 3120 3121 3121 3123 3124 3124 3124 3124 3125 3124 3124 3124 3124 3124 3123 3124 3123 3123 3123 3123 3124 3124 3125 3124 3124 3124 3124 3124 3123 3122 3121 3121 3120 3119 3119 3118 3116 3116 3115 3114 3114 3113 3113 3112
3121 3121 3121 3122 3123 3124 3124 3125 3125 3125 3124 3123 3123 3123 3123 3123 3126 3123 3123 3123 3123 3123 3124 3124 3124 3124 3123 3122 3122 3121 3120 3119 3118 3118 3117 3116 3115 3114 3113 3113 3112 3111 3110 3110 3110
3123 3123 3123 3124 3123 3124 3125 3125 3125 3125 3124 3123 3123 3123 3123 3123 3123 3122 3122 3122 3122 3123 3123 3123 3123 3122 3122 3121 3120 3118 3118 3117 3116 3116 3115 3114 3113 3111 3111 3110 3109 3109 3108 3107 3107
3124 3124 3124 3123 3124 3124 3125 3125 3125 3124 3123 3123 3122 3121 3122 3122 3121 3120 3120 3121 3121 3121 3122 3122 3122 3121 3120 3119 3118 3117 3116 3115 3114 3113 3112 3111 3110 3108 3109 3107 3106 3105 3105 3104 3103
3125 3125 3124 3123 3124 3124 3124 3124 3124 3123 3122 3121 3120 3119 3119 3120 3119 3119 3119 3119 3119 3120 3120 3120 3119 3119 3118 3117 3115 3114 3113 3111 3111 3110 3109 3108 3107 3105 3104 3104 3103 3102 3101 3100 3099
3126 3125 3124 3123 3123 3123 3123 3123 3122 3122 3121 3120 3118 3117 3117 3117 3116 3117 3117 3117 3117 3117 3117 3117 3116 3116 3115 3115 3113 3112 3110 3109 3108 3107 3106 3105 3102 3102 3102 3100 3099 3098 3098 3096 3095
3126 3125 3124 3123 3122 3122 3122 3121 3120 3119 3118 3117 3116 3115 3114 3114 3114 3114 3115 3115 3114 3114 3114 3114 3113 3113 3113 3112 3110 3108 3106 3105 3105 3103 3102 3101 3097 3099 3098 3096 3094 3092 3091 3090 3089
3126 3125 3124 3122 3121 3121 3120 3119 3118 3117 3116 3114 3113 3115 3112 3112 3111 3111 3111 3111 3111 3111 3111 3111 3110 3109 3108 3108 3106 3105 3103 3102 3101 3101 3097 3095 3091 3092 3092 3089 3088 3086 3084 3082 3081
3125 3124 3123 3121 3120 3119 3119 3117 3118 3116 3112 3112 3111 3109 3108 3109 3108 3108 3107 3107 3107 3107 3107 3106 3106 3104 3105 3103 3102 3101 3100 3097 3097 3095 3092 3089 3084 3085 3085 3082 3080 3079 3077 3076 3075
3124 3122 3121 3120 3119 3118 3116 3115 3113 3112 3108 3107 3105 3104 3103 3103 3103 3103 3103 3104 3103 3102 3102 3103 3099 3101 3100 3099 3097 3097 3095 3093 3093 3090 3086 3083 3077 3078 3078 3075 3073 3071 3071 3071 3070
3122 3120 3119 3118 3117 3116 3114 3113 3110 3107 3104 3100 3099 3097 3098 3098 3097 3097 3098 3097 3098 3097 3098 3097 3097 3096 3096 3095 3094 3092 3090 3090 3089 3085 3081 3076 3067 3067 3071 3067 3066 3065 3065 3066 3067
3119 3118 3116 3115 3116 3113 3111 3110 3108 3105 3101 3096 3092 3091 3092 3092 3092 3092 3092 3095 3094 3094 3094 3092 3091 3091 3090 3089 3089 3087 3087 3085 3083 3081 3078 3077 3064 3059 3060 3061 3061 3060 3061 3062 3061
3116 3115 3113 3112 3111 3110 3109 3106 3105 3104 3101 3093 3089 3089 3089 3091 3089 3089 3089 3089 3090 3090 3091 3088 3087 3086 3085 3085 3085 3082 3082 3080 3078 3076 3072 3070 3072 3052 3056 3056 3056 3057 3057 3057 3056
3112 3110 3109 3108 3107 3106 3104 3103 3102 3104 3094 3088 3086 3085 3086 3086 3086 3086 3086 3087 3087 3085 3083 3081 3080 3079 3078 3079 3078 3077 3076 3076 3073 3072 3067 3060 3062 3045 3049 3051 3052 3053 3052 3050 3049
3107 3105 3104 3103 3102 3101 3100 3100 3101 3094 3089 3085 3083 3083 3083 3083 3082 3082 3082 3082 3082 3080 3077 3075 3072 3072 3073 3072 3071 3070 3071 3072 3070 3068 3060 3055 3054 3039 3045 3046 3047 3046 3044 3043 3043
3101 3099 3097 3096 3096 3095 3095 3096 3093 3086 3084 3082 3081 3080 3079 3080 3078 3077 3075 3074 3075 3074 3071 3069 3065 3066 3065 3064 3064 3062 3066 3065 3064 3061 3054 3053 3042 3033 3037 3039 3040 3039 3037 3037 3037
3094 3093 3091 3090 3089 3089 3090 3086 3081 3081 3080 3078 3077 3075 3073 3073 3074 3072 3069 3066 3067 3067 3067 3063 3058 3058 3058 3058 3060 3057 3057 3059 3056 3052 3052 3040 3033 3030 3029 3030 3032 3032 3032 3032 3031
3086 3086 3085 3083 3082 3081 3081 3075 3075 3076 3075 3073 3071 3071 3068 3069 3069 3067 3064 3060 3061 3062 3061 3058 3054 3051 3052 3052 3051 3052 3052 3053 3053 3052 3049 3031 3027 3020 3022 3024 3025 3025 3025 3026 3026
3079 3077 3078 3076 3075 3075 3071 3068 3068 3069 3069 3068 3064 3063 3062 3062 3062 3060 3056 3055 3055 3056 3056 3053 3051 3044 3042 3040 3042 3045 3043 3044 3045 3041 3037 3031 3015 3014 3015 3016 3018 3019 3019 3019 3019
3072 3071 3070 3069 3069 3065 3063 3062 3061 3060 3061 3059 3056 3055 3054 3054 3051 3049 3046 3048 3049 3049 3048 3047 3043 3035 3031 3033 3032 3033 3032 3034 3032 3028 3024 3020 3001 3008 3008 3010 3011 3011 3011 3011 3012
3061 3060 3062 3060 3059 3058 3056 3055 3053 3052 3052 3050 3049 3048 3048 3046 3045 3038 3037 3039 3040 3040 3037 3038 3032 3028 3021 3021 3019 3019 3019 3021 3020 3018 3008 3015 2994 3001 3001 3002 3003 3003 3004 3003 3003
3053 3050 3051 3050 3050 3049 3047 3045 3046 3045 3043 3042 3040 3040 3038 3034 3035 3028 3027 3030 3031 3030 3031 3028 3023 3016 3011 3009 3010 3012 3012 3013 3013 3005 3000 2995 2993 2989 2992 2996 2995 2995 2994 2994 2993
3045 3044 3042 3044 3043 3041 3040 3039 3038 3036 3036 3035 3031 3030 3027 3023 3022 3020 3019 3017 3018 3019 3018 3015 3006 3006 3000 2998 3003 3000 3000 2998 2995 2991 2992 2981 2988 2970 2983 2983 2984 2984 2980 2980 2980
3044 3041 3040 3037 3037 3035 3034 3032 3030 3027 3027 3026 3024 3020 3020 3017 3017 3010 3010 3010 3005 3006 3008 3004 2992 2995 2988 2986 2992 2985 2981 2979 2981 2977 2978 2971 2964 2966 2970 2971 2970 2969 2968 2968 2967
3039 3034 3031 3031 3029 3027 3025 3022 3020 3020 3019 3019 3013 3009 3009 3007 3003 3000 3000 2998 2996 2995 2996 2993 2986 2984 2973 2976 2977 2969 2961 2964 2962 2966 2964 2958 2953 2957 2955 2955 2953 2953 2955 2955 2954
Wind_Speed
4 6 8 8 7 5 4 3 2 3 4 5 5 4 4 3 1 1 1 2 3 3 4 5 5 6 8 8 8 9 10 9 9 7 7 7 7 8 8 10 10 9 10 10 9
3 5 6 6 5 5 4 2 2 3 5 5 5 4 4 3 2 2 2 2 3 4 4 5 5 6 6 5 7 10 10 8 8 8 7 7 8 9 9 9 8 10 11 11 10
4 4 5 5 4 4 2 1 2 3 3 3 3 4 4 4 2 3 2 3 4 5 5 6 5 5 6 7 8 9 10 9 8 8 8 8 7 9 8 7 7 7 10 10 11
6 5 5 4 4 2 0 1 1 2 2 1 1 3 5 5 3 4 4 4 4 4 5 5 6 7 7 7 8 9 9 9 8 8 8 8 8 9 8 6 5 7 8 9 10
7 5 3 2 2 1 1 2 3 4 4 3 3 4 5 5 6 5 5 5 5 5 6 7 7 7 8 7 9 11 9 9 8 9 9 10 11 12 7 7 6 8 9 10 12
6 4 3 1 0 2 3 4 6 6 6 6 6 7 7 7 7 7 7 6 6 6 7 8 8 8 9 9 10 9 10 10 10 10 10 12 12 13 8 9 10 12 13 13 12
6 4 3 1 2 3 5 6 7 7 8 8 8 8 9 9 9 9 8 8 8 9 9 9 9 9 9 10 11 10 12 13 12 12 12 15 14 9 12 12 12 15 16 17 17
6 5 4 3 3 3 6 7 8 9 10 10 10 11 11 11 11 10 9 10 11 11 11 11 11 11 12 12 13 13 14 12 7 11 15 13 18 9 13 14 17 19 18 21 23
7 7 6 5 4 5 6 8 9 10 11 11 12 14 15 13 12 12 12 12 12 14 14 13 13 14 14 14 14 12 11 12 13 11 14 17 21 10 17 20 19 22 24 27 27
7 7 7 7 6 7 8 10 11 12 13 14 15 15 14 14 11 13 14 15 15 15 16 16 16 16 15 14 13 9 13 17 16 13 19 23 27 20 18 20 22 24 27 26 24
8 8 8 8 8 8 9 10 12 14 13 14 16 17 16 15 15 17 18 17 17 18 17 17 18 19 12 16 18 18 19 20 18 19 25 27 29 26 20 25 24 22 18 20 19
10 10 9 10 10 10 11 12 13 15 19 17 19 21 22 23 23 21 21 20 19 18 18 19 22 17 19 19 18 19 21 22 20 21 26 29 34 28 25 17 22 23 18 14 11
12 12 13 12 12 12 13 14 15 18 23 25 22 24 24 23 22 21 20 19 18 19 18 20 19 15 16 19 21 21 23 21 24 25 27 29 36 25 18 25 9 18 16 11 14
13 13 13 14 14 14 15 16 17 19 19 18 16 15 15 16 17 16 17 17 17 15 17 17 19 20 22 22 20 21 21 21 20 20 10 13 12 27 18 8 15 16 12 14 24
17 16 16 15 15 15 16 16 16 16 5 7 10 11 10 13 9 9 14 15 16 16 18 19 21 21 21 22 21 22 21 22 20 20 24 24 13 21 9 13 12 13 16 26 23
20 19 18 18 18 17 17 16 16 7 8 6 9 10 12 15 16 14 12 15 16 21 25 27 28 28 25 23 22 23 21 18 22 19 6 18 17 8 12 8 8 15 23 24 21
24 24 22 21 21 20 18 16 11 8 6 7 9 10 13 15 17 18 20 22 21 19 25 26 27 25 23 26 28 27 20 4 3 2 6 6 12 29 14 18 22 18 23 21 20
26 26 26 24 23 22 20 17 13 10 12 14 18 20 19 18 20 23 29 33 32 29 29 20 16 20 20 23 22 17 23 10 7 4 4 7 12 18 17 14 18 26 21 20 21
27 27 26 25 23 22 20 22 15 13 15 19 18 23 27 21 23 25 28 31 26 22 25 10 15 17 21 18 17 14 22 24 16 13 6 14 26 33 33 28 19 17 17 16 20
31 27 25 24 21 21 21 30 24 16 19 22 25 16 21 20 20 21 22 20 21 19 21 24 22 18 25 25 24 25 19 9 9 4 6 10 17 25 17 27 24 19 17 18 20
35 32 25 23 20 20 26 30 29 27 26 26 29 29 29 27 26 29 27 28 27 23 20 25 25 29 27 25 31 28 30 23 19 18 6 11 15 16 11 15 21 25 22 21 23
29 31 22 26 29 28 29 28 27 24 26 28 32 33 34 34 36 36 38 34 26 27 24 21 25 35 42 38 31 29 32 32 24 13 23 18 41 33 35 32 32 30 27 23 26
37 35 32 27 21 24 26 26 28 30 29 27 22 21 25 30 28 27 28 26 23 29 27 26 26 24 18 24 29 29 38 41 43 41 43 20 33 25 18 17 24 30 31 27 31
33 27 28 27 24 20 18 18 16 12 15 14 21 24 33 35 32 34 37 32 27 29 31 32 39 36 29 23 9 18 26 31 33 33 34 43 49 56 52 49 48 41 46 41 39
24 19 18 15 17 20 27 30 30 28 21 12 19 21 22 25 24 28 32 35 36 36 30 27 39 39 45 45 38 44 49 53 49 53 41 52 41 70 55 51 43 43 43 41 40
21 20 19 25 27 32 32 32 35 38 31 30 33 38 33 28 23 28 26 27 37 38 35 40 43 48 51 61 59 57 56 61 58 60 56 60 60 61 59 58 55 55 53 50 46
24 24 24 22 20 19 17 20 25 28 30 26 28 32 32 35 38 40 36 40 40 36 34 36 40 34 42 45 36 31 49 49 53 51 49 50 53 48 48 46 45 43 42 40 42
Wind_Direction
187 195 197 193 191 189 194 206 221 265 275 276 268 257 254 261 272 261 204 185 188 182 193 196 193 203 213 218 227 237 238 258 254 249 245 249 258 262 266 272 269 266 264 264 263
151 170 175 175 174 181 195 200 246 271 273 268 258 252 250 245 232 228 198 196 195 199 205 205 201 209 219 230 236 232 248 267 258 257 259 264 267 268 279 280 274 263 260 263 257
105 136 149 155 163 185 190 241 267 268 259 257 260 252 250 243 235 236 216 202 204 200 208 214 210 223 230 235 242 254 258 264 264 262 261 269 279 289 289 288 277 266 254 260 263
73 97 122 142 173 172 184 271 273 267 264 284 283 257 252 247 243 254 232 225 217 216 228 231 231 236 244 249 259 265 263 262 262 270 269 274 282 293 292 289 296 292 286 272 262
68 79 100 146 147 143 238 272 287 282 276 277 275 269 265 257 255 256 245 239 239 242 247 247 247 253 252 260 276 271 270 268 262 270 264 282 288 290 276 275 301 306 301 285 274
54 63 78 65 4 274 277 283 282 280 280 280 279 279 277 277 262 263 252 247 248 251 254 255 257 259 265 264 275 273 281 268 265 286 270 288 280 284 270 280 292 306 303 297 286
42 36 27 359 294 295 289 280 279 282 284 281 282 282 280 272 270 261 257 257 252 252 252 255 257 261 267 272 270 269 277 272 275 273 274 288 284 282 266 275 273 297 294 295 292
31 19 11 357 327 297 286 283 282 280 278 277 283 286 284 274 264 259 259 258 255 253 254 256 259 263 265 266 270 276 276 266 257 280 282 278 288 272 275 273 282 291 287 285 285
18 6 359 348 331 301 293 292 288 284 280 280 280 285 279 273 265 255 261 260 260 256 255 257 259 262 264 268 272 273 259 266 281 279 282 280 286 288 290 278 277 285 287 284 279
359 356 350 346 330 309 300 296 293 288 285 282 280 276 267 267 257 253 260 262 259 258 256 255 257 261 264 263 265 270 266 277 277 286 287 286 289 289 288 284 286 280 283 277 276
332 332 333 334 329 315 311 308 303 297 288 282 274 269 267 264 256 264 262 260 258 255 255 256 256 261 275 268 272 269 274 276 284 290 289 292 289 294 289 291 285 277 270 274 271
314 315 315 316 314 311 309 308 306 300 294 286 279 272 266 264 262 261 258 256 254 256 254 253 260 270 264 267 263 269 273 276 287 293 292 293 290 293 298 295 286 278 274 268 265
306 305 305 305 305 305 305 306 307 306 303 294 281 268 261 258 259 257 251 250 253 253 254 255 262 267 265 266 267 270 272 280 287 291 291 296 297 298 299 296 270 269 260 248 278
309 306 304 302 301 299 299 301 305 309 305 288 272 265 255 247 253 251 242 243 248 254 254 264 263 266 268 268 267 267 275 280 283 289 281 289 290 291 302 182 285 262 224 291 287
305 305 305 303 301 298 297 298 301 310 328 279 257 262 250 232 241 244 233 234 255 259 262 263 270 270 267 270 269 271 275 278 281 281 284 278 260 291 251 265 239 228 233 284 271
300 300 301 300 299 297 298 298 300 284 249 257 257 259 249 245 243 246 238 246 265 271 271 273 272 268 267 267 260 266 268 270 278 274 262 271 224 258 253 233 226 268 271 275 271
297 296 295 295 294 292 291 292 290 220 269 261 270 272 264 257 253 253 259 264 270 277 279 281 273 267 261 260 259 257 249 279 278 197 235 245 226 252 257 257 272 278 281 274 271
294 293 293 291 289 287 284 279 242 251 249 274 285 284 274 272 267 264 269 273 273 272 269 269 267 264 261 257 255 252 236 210 231 214 251 246 244 275 275 263 263 287 278 274 272
292 292 292 291 289 283 277 259 252 264 268 272 276 282 280 273 264 272 275 280 279 273 252 247 262 276 260 251 246 243 230 245 254 283 292 260 264 270 269 271 277 278 275 273 276
294 292 294 294 289 281 269 262 259 263 267 272 278 272 273 281 278 278 279 276 284 272 258 262 276 271 259 256 244 239 248 223 207 241 241 263 269 261 267 277 274 271 264 274 273
299 299 301 297 286 279 272 272 278 277 277 277 279 276 279 280 274 272 267 273 276 272 261 256 254 270 266 252 252 246 242 237 242 239 234 269 263 271 257 273 280 278 272 272 269
298 293 293 291 290 285 279 281 281 277 273 271 274 275 278 282 280 276 270 267 269 271 265 260 266 269 271 274 263 248 249 249 233 242 235 252 264 268 270 272 274 277 277 281 277
299 293 292 288 283 283 282 275 274 278 278 280 276 278 282 284 289 281 279 280 270 265 259 266 256 259 272 261 250 238 245 246 248 251 250 250 259 269 268 269 274 273 279 284 280
303 299 292 291 287 281 280 280 292 282 278 265 272 276 291 286 275 272 273 275 271 265 266 274 257 243 245 254 233 247 261 264 259 247 257 250 262 267 270 275 276 277 282 278 272
312 298 289 279 261 260 275 287 287 284 272 298 282 255 263 286 288 279 277 274 267 267 265 251 245 245 249 255 260 265 270 270 259 257 253 263 261 276 277 276 278 276 269 271 271
336 321 298 288 282 279 279 276 280 279 289 285 275 272 268 271 282 285 280 278 277 274 270 263 268 276 273 271 274 272 270 270 263 261 262 266 263 282 277 272 272 272 270 269 266
321 318 318 320 321 318 311 291 283 281 282 282 280 287 286 285 282 273 276 285 283 275 265 275 269 264 258 274 272 260 264 270 268 268 268 258 278 279 270 268 266 267 271 269 260